www.pogodaiklimat.ru

Погода и климат >> Архив погоды >> Иран >> Остров Киш


ПОГОДА на Острове Киш

  • Прогноз погоды на Острове Киш
  • Монитор погоды на Острове Киш

АРХИВ ПОГОДЫ на Острове Киш

Время (UTC), дата Ветер
(напр.,м/с)
 
Видим.   Явления Облачность Т
(С)
Тd
(С)
f
(%)
Тe
(С)
Тes
(С)
Комфортность P
(гПа)
Po
(гПа)
Тmin
(С)
Tmax
(С)
R
(мм)
R24
(мм)
S
(см)
03 15.04 З 5 8000 м дымка ясно +22.2 +19.7 86 +28 +29 душно 1010.9 1007.4 +21.6 666
06 15.04 З 7 8000 м мгла ясно +24.4 +18.4 69 +29 +33 душно 1012.6 1009.2
09 15.04 З 7 8000 м мгла ясно +26.8 +19.4 64 +32 +38 очень
душно
1011.8 1008.4
12 15.04 З 9 10 км 1/1 600 м
[Cu hum]
+26.6 +19.2 64 +32 +33 очень
душно
1010.0 1006.6
15 15.04 З 9 8000 м мгла ясно +24.0 +19.7 77 +29 +29 душно 1010.5 1007.1 +27.4
18 15.04 З 7 7000 м дымка ясно +23.2 +19.5 80 +30 +30 очень
душно
1011.5 1008.1
21 15.04 З 3 7000 м дымка ясно +22.6 +19.3 82 +29 +29 очень
душно
1011.0 1007.6
00 16.04 З 4 7000 м дымка ясно +22.0 +19.4 85 +27 +27 душно 1009.5 1006.1
03 16.04 З 3 6000 м дымка 1/0
[Ci fib]
+22.0 +19.5 86 +28 +28 душно 1010.7 1007.2 +21.4 666
06 16.04 З 4 6000 м мгла 4/0
[Cc]
+25.4 +19.2 69 +31 +39 очень
душно
1012.7 1009.2
09 16.04 З 5 7000 м мгла 1/0
[Ci fib]
+27.2 +18.8 60 +32 +43 очень
душно
1011.9 1008.5
12 16.04 З 6 8000 м мгла 3/0
[Ci sp]
+27.4 +14.9 46 +30 +33 жарко 1010.2 1006.7
15 16.04 З 4 8000 м мгла 3/0
[Ci sp]
+24.8 +17.1 62 +29 +29 душно 1010.0 1006.6 +27.6 666
18 16.04 З 3 8000 м мгла 1/0
[Ci fib]
+22.8 +18.4 76 +28 +28 душно 1011.2 1007.7
21 16.04 З 2 7000 м дымка ясно +22.4 +19.3 83 +28 +28 душно 1010.5 1007.1
00 17.04 СЗ 2 6000 м дымка ясно +21.6 +19.7 89 +27 +27 душно 1009.4 1005.9
03 17.04 штиль 0 4000 м дымка 3/0
[Ci fib]
+21.6 +20.0 91 +27 +29 душно 1010.9 1007.4 +20.4 666
06 17.04 ЮЗ 3 6000 м дымка ясно +27.2 +23.4 80 +37 +49 очень
душно
1012.3 1008.9
09 17.04 ЮЗ 4 7000 м мгла ясно +28.6 +23.6 74 +39 +53 опасность
солнечного
удара
1012.0 1008.6 666
12 17.04 З 6 8000 м мгла ясно +29.2 +20.8 61 +36 +40 очень
душно
1010.2 1006.7
15 17.04 З 8 10 км ясно +25.6 +16.6 58 +29 +29 душно 1009.7 1006.3 +29.4
18 17.04 З 3 10 км ясно +24.0 +19.0 74 +29 +29 душно 1011.2 1007.7
21 17.04 штиль 0 10 км ясно +22.6 +18.5 78 +28 +28 душно 1010.5 1007.0
00 18.04 ЮВ 2 10 км 1/0
[Ci fib]
+22.0 +17.8 77 +27 +27 душно 1009.7 1006.2
03 18.04 В 3 3500 м дымка 1/0
[Cs]
+22.6 +21.7 95 +30 +31 очень
душно
1011.7 1008.2 +21.2
06 18.04 В 5 10 км ясно +27.4 +19.1 61 +33 +40 очень
душно
1013.2 1009.8
09 18.04 Ю 3 8000 м мгла ясно +30.0 +13.8 37 +32 +49 жарко 1012.8 1009.3
12 18.04 ЮЗ 2 8000 м мгла 8/1 1050 м
[Sc Ac As]
+30.4 +6.7 23 +29 +33 жарко 1011.0 1007.6
15 18.04 ЮЗ 2 8000 м мгла ясно +27.4 +10.7 35 +28 +28 жарко 1010.4 1007.0 +31.2 666
18 18.04 ЮВ 2 8000 м мгла 3/0
[Ac trans Ci fib]
+24.8 +17.8 65 +29 +29 душно 1011.1 1007.7
21 18.04 В 3 7000 м мгла ясно +23.8 +17.6 68 +28 +28 душно 1010.1 1006.7
00 19.04 В 3 7000 м мгла ясно +24.8 +18.9 70 +30 +30 душно 1008.8 1005.4
03 19.04 ЮВ 5 5000 м мгла ясно +23.6 +19.6 78 +29 +29 душно 1009.7 1006.3 +22.6 666
06 19.04 В 7 5000 м мгла 3/1 1050 м
[Sc Ac trans]
+28.6 +19.4 58 +34 +38 очень
душно
1011.8 1008.3
09 19.04 ЮВ 4 6000 м мгла 3/1 1050 м
[Sc diur, vesp Ac trans]
+31.6 +15.6 38 +34 +45 душно 1011.3 1007.9 666
12 19.04 ЮВ 5 6000 м мгла 3/3 1050 м
[Sc diur, vesp Ac trans]
+31.8 +10.8 28 +32 +35 жарко 1009.4 1006.0
15 19.04 штиль 0 6000 м мгла 1/1 1050 м
[Sc]
+29.2 +14.9 42 +32 +32 душно 1009.2 1005.8 +32.4
18 19.04 В 3 7000 м мгла 1/1 1050 м
[Cu hum]
+27.0 +8.3 31 +27 +27 жарко 1009.1 1005.7
21 19.04 В 3 7000 м мгла ясно +26.4 +11.9 40 +28 +28 жарко 1007.6 1004.2
00 20.04 ЮВ 4 7000 м мгла ясно +25.4 +17.1 60 +29 +29 душно 1006.7 1003.3
03 20.04 СВ 4 7000 м мгла ясно +24.6 +19.3 72 +30 +30 очень
душно
1007.9 1004.5 +23.8 666
06 20.04 В 4 6000 м мгла 1/0
[Ac trans]
+31.4 +10.2 27 +31 +40 жарко 1009.0 1005.6
09 20.04 ЮВ 4 7000 м мгла ясно +34.2 +4.6 16 +32 +45 жарко 1008.3 1004.9
12 20.04 Ю 5 8000 м мгла ясно +31.0 +15.7 40 +34 +38 душно 1006.4 1003.0
15 20.04 СВ 2 7000 м мгла 5/4 1050 м
[Cu hum Ci fib]
+30.0 +16.8 45 +34 +34 очень
душно
1006.0 1002.7 +34.6
18 20.04 В 3 6000 м мгла 6/6 1050 м
[Cu hum]
+27.2 +18.7 60 +32 +32 очень
душно
1006.5 1003.2
21 20.04 СЗ 2 6000 м мгла ясно +24.4 +18.1 68 +29 +29 душно 1005.9 1002.5
00 21.04 СЗ 2 6000 м мгла ясно +24.4 +19.6 75 +30 +30 очень
душно
1005.1 1001.7
03 21.04 штиль 0 5000 м дымка ясно +23.8 +22.0 90 +31 +32 очень
душно
1006.5 1003.1 +23.2
06 21.04 ЮВ 2 6000 м мгла ясно +32.8 +13.9 32 +34 +49 очень
жарко
1007.4 1004.0
09 21.04 Ю 3 6000 м мгла 6/4 1050 м
[Cu hum Ac trans]
+34.8 +15.8 32 +37 +45 очень
душно
1006.6 1003.3
12 21.04 ЮЗ 4 6000 м мгла 9/6 1050 м
[Cu hum Ac trans Ci fib]
+30.8 +18.9 49 +36 +37 очень
душно
1005.4 1002.0
15 21.04 штиль 0 6000 м мгла 10/6 750 м
[Cb calv Cs]
+29.4 +21.1 61 +37 +37 очень
душно
1005.1 1001.7 +35.4
18 21.04 С 2 7000 м мгла 1/1 1050 м
[Cu hum Ci fib]
+28.0 +19.8 61 +34 +34 очень
душно
1004.8 1001.5
21 21.04 нст 1 7000 м мгла 3/0
[Ac trans Ci fib]
+27.4 +19.1 61 +33 +33 очень
душно
1003.6 1000.3

 

Местоположение метеостанции Остров Киш (Иран): широта 26.50 долгота 53.98 высота над уровнем моря 30 м.

В архиве по умолчанию представлена погода на Острове Киш за последнюю неделю. Архивные данные за месяц целиком и за предыдущие месяцы, начиная с января 2011 года, Вы можете получить, выбрав интересующий диапазон дат из раскрывающегося списка и нажав кнопку "Ввод!".


*Определитесь, кто Вы:
робот инопланетянин человек

Внимание! Время в таблицах - всемирное. Для получения местного времени необходимо прибавить поправку, которая равна 3.5 ч.

Смотрите также архив погоды в соседних городах и на ближайших метеорологических станциях:

Погода в Бендер-Ленге (Иран) (85 км)
Погода на Острове Сирри (Иран) (87 км)
Погода на Острове Абу-Муса (Иран) (113 км)
Погода в Дубае (ОАЭ) (194 км)
Погода в Шардже (ОАЭ) (202 км)
Погода в Аль-Мактум аэропорту (ОАЭ) (214 км)
Погода в Рай-эль-Хайма аэропорту (ОАЭ) (218 км)
Погода в Эль-Хасаб аэропорту (Оман) (227 км)
Погода в Эль-Хасабе (Оман) (228 км)
Погода в Абу-Даби Батин аэропорту (ОАЭ) (235 км)

Пояснения к столбцам:

Ветер - указаны скорость ветра в м/с - средняя за 10 мин, порывы в срок и между сроками (в фигурных скобках) и направление, откуда дует ветер: С - северный, СВ - северо-восточный, В - восточный, ЮВ - юго-восточный, Ю - южный, ЮЗ - юго-западный, З - западный, СЗ - северо-западный.
Видимость - горизонтальная дальность видимости в метрах или километрах. При видимости от 1 до 10 км при отсутствии осадков обычно наблюдается дымка, при ухудшении видимости до 1 км и менее - туман. В сухую погоду видимость может ухудшаться дымом, пылью или мглою.
Явления - указаны атмосферные явления, наблюдавшиеся в срок или в последний час перед сроком; фигурными скобками обозначены явления, наблюдавшиеся между сроками (за 1-3 часа до срока); квадратными скобками обозначены град или гололедные отложения с указанием их диаметра в мм.
Облачность - указаны через наклонную черту общая и нижняя облачность в баллах и высота нижней границы облаков в метрах; квадратными скобками обозначены формы облаков: Ci - перистые, Cs - перисто-слоистые, Cc - перисто-кучевые, Ac - высококучевые, As - высокослоистые, Sc - слоисто-кучевые, Ns - слоисто-дождевые, Cu - кучевые, Cb - кучево-дождевые. Подробнее классификацию облаков см. в Атласе облаков (PDF).
T - Температура воздуха - температура, измеренная на высоте 2 м над землей.
Td - Температура точки росы - температура, при понижении до которой содержащийся в воздухе водяной пар достигнет насыщения.
f - Относительная влажность воздуха - влажноcть воздуха, измеренная на высоте 2 м над землей.
Te - Эффективная температура - температура, которую ощущает одетый по сезону человек в тени. Характеристика душности погоды. При расчете учитывается влияние влажности воздуха и скорости ветра на теплоощущения человека.
Tes - Эффективная температура на солнце - температура, которую ощущает человек, с поправкой на солнечный нагрев. Характеристика знойности погоды. Зависит от высоты солнца над горизонтом, облачности и скорости ветра. Ночью, в пасмурную погоду, а также при ветре 12 м/с и более поправка равна нулю.
P - Атмосферное давление - приведенное к уровню моря атмосферное давление.
Po - Атмосферное давление - измеренное на уровне метеостанции атмосферное давление.
Tmin - Минимальная температура - минимум температуры воздуха на высоте 2 м над землей.
Tmax - Максимальная температура - максимум температуры воздуха на высоте 2 м над землей.
R - Количество осадков - Количество выпавших осадков за период времени, мм. При наведении курсора мыши на число - период времени, за который выпало указанное количество осадков.
R24 - Количество осадков - Количество выпавших осадков за 24 часа, мм.
S - Снежный покров - Высота снежного покрова, см. При наведении курсора мыши на число - состояние снежного покрова и степень покрытия местности в баллах.